Helicity
49 31 0 7 30 11 25 29 42 46 87 132 155 144 145 144 150 143 174 189 214 245 227 198 184 177 152 112 88 87 20 7
56 34 21 25 6 65 98 121 114 165 199 226 199 175 184 182 156 150 156 146 216 224 206 191 165 155 105 110 93 38 -10 30
88 55 59 79 90 112 165 205 211 203 237 237 205 220 181 174 167 154 143 181 185 169 178 167 158 159 157 120 47 23 80 41
178 155 152 132 121 153 207 211 231 224 246 257 252 288 233 242 224 190 152 139 127 150 167 177 173 152 116 96 73 98 111 76
243 224 199 219 209 183 184 190 257 238 258 272 306 309 273 181 170 153 173 149 149 180 216 222 194 145 165 169 109 119 93 92
295 289 265 246 221 243 230 230 215 230 244 242 253 233 178 159 206 217 208 202 230 262 245 212 237 275 286 209 155 194 132 136
259 258 248 281 312 305 304 322 265 190 243 222 218 218 147 183 210 241 256 286 307 323 344 351 342 281 261 175 286 293 138 140
355 355 325 348 389 350 315 303 247 205 243 241 268 165 164 166 224 289 334 357 378 390 400 379 364 514 234 296 419 349 227 139
423 341 387 452 418 333 301 271 212 213 224 245 251 140 194 242 278 330 417 455 519 552 549 571 218 224 399 380 303 200 224 140
315 340 395 399 352 334 251 260 216 223 245 287 267 230 295 363 402 520 487 599 647 503 668 304 331 422 212 227 111 208 168 127
170 273 304 302 327 262 271 240 225 238 291 322 296 354 419 473 499 546 646 712 481 433 524 396 305 233 158 189 218 168 131 95
68 108 177 226 256 276 251 228 241 246 302 339 395 457 529 550 503 523 498 481 537 404 325 249 292 232 212 245 213 164 155 165
57 74 147 185 179 187 227 261 280 293 362 448 448 477 454 526 533 535 533 544 404 304 317 333 284 277 284 250 160 182 208 217
75 119 146 165 194 256 255 275 310 458 465 523 477 450 481 510 498 483 372 369 398 299 301 266 339 295 183 135 167 194 181 144
128 142 158 202 283 339 354 439 445 441 501 467 431 483 537 488 443 456 423 432 475 348 414 501 367 140 141 163 177 158 166 172
117 154 168 204 304 379 402 443 428 509 515 488 532 587 534 483 490 480 347 560 591 720 632 221 130 153 129 131 141 170 189 208
130 85 131 211 291 344 345 380 459 512 519 561 577 571 532 549 622 743 796 912 645 178 165 149 132 110 86 84 143 194 234 243
176 156 134 131 196 285 356 430 480 524 566 585 640 678 751 783 780 733 676 284 147 148 162 108 85 91 78 91 121 217 250 253
185 176 170 169 193 284 368 439 532 591 644 722 780 828 808 735 670 480 198 92 134 140 120 86 98 104 97 104 129 231 266 252
Wind_Speed
57 58 61 61 59 53 50 46 44 42 30 21 16 15 11 11 13 14 14 12 13 14 16 16 19 24 30 35 40 45 45 46
52 51 49 48 45 42 45 39 37 36 25 21 14 11 8 10 11 11 11 11 13 15 15 16 19 24 30 35 42 46 47 47
47 49 47 45 43 40 37 34 36 33 23 14 5 6 6 8 9 10 9 10 11 12 13 16 20 29 36 38 42 47 49 45
44 44 46 38 38 38 35 37 40 33 19 13 9 10 16 15 14 9 10 9 6 7 13 17 26 32 34 39 43 46 51 51
43 38 39 39 40 37 33 35 35 31 25 19 9 5 8 14 9 9 9 6 7 12 17 23 29 32 35 41 44 50 53 57
43 39 39 35 27 26 25 24 24 25 25 18 8 8 11 18 13 9 9 12 15 21 23 26 31 35 38 41 53 58 57 58
39 33 14 16 18 19 21 24 25 23 20 15 13 12 10 13 12 11 13 19 22 23 24 26 30 38 43 52 60 60 59 60
37 35 29 25 23 25 24 21 21 20 15 12 13 13 11 14 16 13 13 16 18 18 23 29 32 44 51 60 61 61 58 59
39 42 36 31 25 24 20 16 17 15 14 12 14 13 15 19 18 15 15 15 16 17 26 32 42 51 54 58 63 52 57 57
35 31 29 25 24 23 20 15 15 14 15 15 14 15 18 18 17 18 16 19 22 22 37 38 48 52 62 57 48 53 54 57
15 20 22 19 16 17 12 12 13 12 12 14 11 13 14 16 16 15 15 21 24 26 35 42 50 56 47 44 49 53 56 59
16 17 17 14 8 7 9 10 10 10 10 6 9 12 12 11 15 13 14 20 23 30 40 43 42 41 45 49 51 54 57 60
13 13 10 8 7 5 8 9 9 9 7 8 13 13 16 20 17 17 21 23 26 39 37 37 40 44 49 52 55 54 58 62
11 8 2 4 6 12 14 14 12 11 12 14 15 19 20 19 20 23 25 33 37 39 39 40 45 50 56 54 57 58 59 59
14 19 20 21 25 24 19 21 17 15 14 14 17 19 22 24 26 27 31 35 38 39 40 48 52 56 58 58 56 56 57 57
33 26 25 29 32 30 25 22 19 16 15 17 20 22 24 24 26 34 38 39 40 44 51 55 58 60 56 55 55 56 59 59
39 28 28 27 29 28 25 22 20 16 17 22 21 21 24 28 34 37 39 44 46 50 55 59 66 60 61 59 57 60 58 55
43 45 42 36 28 25 22 21 19 19 21 22 22 25 29 34 37 40 46 50 52 59 60 60 59 62 63 58 57 55 54 50
44 44 42 40 33 29 26 24 23 24 24 23 24 26 31 34 42 49 49 52 53 55 60 63 62 60 61 59 56 54 51 48
Wind_Direction
161 161 170 172 168 161 155 147 142 142 131 119 103 106 85 57 48 37 40 49 44 39 25 22 17 4 353 352 349 349 349 348
157 156 154 153 152 147 152 145 144 144 132 131 121 112 28 33 37 44 49 40 31 27 19 14 3 356 351 348 346 345 344 344
158 160 158 157 156 153 151 150 152 151 145 135 69 65 36 20 29 21 24 21 23 17 11 5 359 352 347 344 343 341 341 342
157 160 165 161 164 164 162 164 165 161 149 139 347 342 339 338 347 355 357 2 14 7 2 357 349 347 346 344 342 340 337 337
170 165 167 167 171 170 172 172 172 171 166 169 177 208 310 325 332 342 354 15 12 357 349 345 346 346 345 345 347 344 339 334
178 178 180 178 170 172 171 172 174 173 177 187 213 259 301 326 327 330 335 342 341 339 341 345 346 346 346 343 338 336 336 334
186 187 204 194 189 187 179 179 181 179 186 205 224 248 274 313 323 318 324 330 335 339 343 346 349 342 342 340 337 334 332 331
188 186 186 186 187 184 183 188 192 190 202 221 244 238 253 294 308 307 309 319 331 340 349 341 339 342 335 332 335 333 332 331
187 189 186 187 188 185 189 202 205 213 226 251 263 251 277 295 302 300 300 314 328 333 340 337 326 336 337 333 330 331 331 331
183 184 185 187 188 192 195 204 214 232 248 277 273 275 289 301 309 314 310 326 336 329 336 328 330 333 328 329 330 331 333 331
160 173 181 185 194 197 211 217 238 258 272 280 270 285 298 311 318 313 309 328 321 320 324 327 321 325 329 332 331 331 331 330
121 140 160 172 185 209 223 242 259 272 283 280 289 302 308 314 307 303 296 305 316 316 318 321 325 329 331 330 329 328 326 328
113 118 117 140 178 226 246 270 275 276 276 298 304 304 303 307 309 309 310 313 314 319 321 325 328 330 330 328 327 327 327 327
335 332 286 226 265 294 299 295 291 297 293 305 305 303 305 309 314 321 315 321 322 325 330 329 330 329 329 329 327 327 326 327
310 311 306 302 303 306 305 305 304 303 305 304 310 312 316 319 318 317 321 325 329 327 329 330 329 327 326 326 327 327 327 327
308 310 310 312 312 313 315 311 307 309 307 313 315 320 322 323 328 327 330 336 337 336 333 329 326 325 326 327 327 328 326 325
328 331 319 310 309 312 316 317 316 317 315 317 324 328 330 332 332 336 336 336 334 330 327 324 323 327 328 325 325 325 325 325
333 336 340 342 340 335 330 331 334 332 330 331 333 334 336 337 338 337 332 328 325 323 326 330 330 327 328 328 326 326 325 324
339 343 346 349 353 354 354 353 350 345 342 341 341 339 338 338 334 330 329 327 328 329 329 328 329 330 329 328 327 326 325 325